Location: Marshall
(39.8477°N, 87.1868°W)
Time: 02:26:01
(UTC+00:00)

BlueWalker 3 - Pass Details

Date: 11 May 2026
Orbit: 447 x 456 km, 53.2° (Epoch: 9 June)

Event Time Altitude Azimuth Distance (km) Brightness Sun altitude
Exits shadow 08:19:52 18° 316° (NW) 1,156 3.8 -21.9°
Maximum altitude 08:20:40 20° 335° (NNW) 1,106 3.9 -21.8°
Drops below altitude 10° 08:23:20 10° 24° (NNE) 1,576 5.5 -21.5°
Sets 08:25:54 0° 42° (NE) 2,451 7.0 -21.2°
